User: anonymous   Login
Location: Follega
(52.8850°N, 5.7362°E)
Time: 23:33:31
(UTC+00:00)
Language:

SL-27 R/B - Orbit

View from above orbital plane
View from above orbital plane
View from above satellite
View from above satellite

Ground track
Ground track

The orbit data is extracted from the following two-line orbital elements,

1 40354U 14084B   21127.77655206  .00001023  00000-0  25527-4 0  9995
2 40354  74.7377  76.7689 0035212 102.8645 257.6505 15.41022029358478
Epoch (UTC): 07 May 2021 18:38:14
Eccentricity: 0.0035212
inclination: 74.7377°
perigee height: 419 km
apogee height: 467 km
right ascension of ascending node: 76.7689°
argument of perigee: 102.8645°
revolutions per day: 15.41022029
mean anomaly at epoch: 257.6505°
orbit number at epoch: 35847

The dashed part of the orbit path shows where the satellite is in the earth's shadow,  

DLR